| time (UTC) | temp F | wind direction | speed MPH | gust MPH | rain 1hr in | rain 24hr in | rain mn in | humidity % | barometer mb |
| 20260509223055 | 88 | 221 | 3.0 | 7.0 | 0.00 | 0.28 | 0.01 | 31 | 1008.7 |
| 20260509221552 | 88 | 210 | 3.0 | 7.0 | 0.00 | 0.28 | 0.01 | 30 | 1008.8 |
| 20260509220051 | 88 | 218 | 2.0 | 7.0 | 0.00 | 0.28 | 0.01 | 30 | 1009.0 |
| 20260509214551 | 89 | 20 | 2.0 | 6.0 | 0.00 | 0.28 | 0.01 | 29 | 1009.0 |
| 20260509213049 | 88 | 216 | 2.0 | 8.0 | 0.00 | 0.28 | 0.01 | 31 | 1009.0 |
| 20260509211554 | 88 | 124 | 3.0 | 7.0 | 0.00 | 0.28 | 0.01 | 30 | 1009.3 |
| 20260509210053 | 87 | 181 | 1.0 | 6.0 | 0.00 | 0.28 | 0.01 | 30 | 1009.4 |
| 20260509204546 | 86 | 237 | 1.0 | 10.0 | 0.00 | 0.28 | 0.01 | 29 | 1009.6 |
| 20260509203042 | 87 | 223 | 1.0 | 0.0 | 0.00 | 0.00 | 0.01 | 29 | 1009.7 |
| 20260509201539 | 88 | 205 | 1.0 | 5.0 | 0.00 | 0.28 | 0.01 | 31 | 1009.8 |
| 20260509200046 | 87 | 148 | 2.0 | 6.0 | 0.00 | 0.28 | 0.01 | 31 | 1010.1 |
| 20260509194535 | 87 | 123 | 0.0 | 4.0 | 0.00 | 0.28 | 0.01 | 32 | 1010.3 |
| 20260509193031 | 86 | 89 | 0.0 | 9.0 | 0.00 | 0.28 | 0.01 | 37 | 1010.4 |
| 20260509191530 | 86 | 70 | 2.0 | 6.0 | 0.00 | 0.28 | 0.01 | 33 | 1010.5 |
| 20260509190035 | 86 | 181 | 1.0 | 4.0 | 0.00 | 0.28 | 0.01 | 35 | 1010.8 |
| 20260509184534 | 85 | 214 | 0.0 | 4.0 | 0.00 | 0.28 | 0.01 | 36 | 1011.0 |
| 20260509183023 | 84 | 205 | 1.0 | 6.0 | 0.00 | 0.28 | 0.01 | 35 | 1011.1 |
| 20260509181522 | 84 | 165 | 2.0 | 7.0 | 0.00 | 0.28 | 0.01 | 34 | 1011.3 |
| 20260509180023 | 84 | 212 | 3.0 | 7.0 | 0.00 | 0.28 | 0.01 | 33 | 1011.5 |
| 20260509174519 | 83 | 207 | 2.0 | 6.0 | 0.00 | 0.28 | 0.01 | 37 | 1011.8 |
| 20260509173048 | 82 | 207 | 1.0 | 7.0 | 0.00 | 0.28 | 0.01 | 38 | 1012.1 |
| 20260509171523 | 82 | 193 | 3.0 | 8.0 | 0.00 | 0.28 | 0.01 | 41 | 1012.3 |
| 20260509170016 | 82 | 217 | 1.0 | 4.0 | 0.00 | 0.28 | 0.01 | 41 | 1012.3 |
| 20260509164509 | 81 | 193 | 1.0 | 5.0 | 0.00 | 0.28 | 0.01 | 44 | 1012.4 |
| 20260509163008 | 80 | 217 | 0.0 | 5.0 | 0.00 | 0.28 | 0.01 | 50 | 1012.5 |
| 20260509161503 | 79 | 149 | 1.0 | 4.0 | 0.00 | 0.28 | 0.01 | 49 | 1012.6 |
| 20260509154554 | 74 | 127 | 0.0 | 3.0 | 0.00 | 0.28 | 0.01 | 70 | 1012.3 |
| 20260509153049 | 72 | 152 | 0.0 | 3.0 | 0.00 | 0.28 | 0.01 | 78 | 1012.5 |
| 20260509151600 | 71 | 143 | 0.0 | 3.0 | 0.00 | 0.28 | 0.01 | 83 | 1012.4 |
| 20260509150048 | 69 | 211 | 0.0 | 4.0 | 0.00 | 0.28 | 0.01 | 92 | 1012.4 |
| 20260509144539 | 67 | 158 | 0.0 | 3.0 | 0.00 | 0.28 | 0.01 | 94 | 1012.3 |
| 20260509143039 | 64 | 48 | 0.0 | 3.0 | 0.00 | 0.28 | 0.01 | 95 | 1012.4 |
| 20260509141536 | 64 | 48 | 0.0 | 1.0 | 0.00 | 0.28 | 0.01 | 95 | 1012.5 |
| 20260509140033 | 65 | 97 | 0.0 | 0.0 | 0.00 | 0.00 | 0.01 | 95 | 1012.5 |
| 20260509134529 | 62 | 97 | 0.0 | 1.0 | 0.00 | 0.28 | 0.01 | 96 | 1012.5 |
| 20260509133027 | 60 | 97 | 0.0 | 0.0 | 0.00 | 0.28 | 0.01 | 97 | 1012.4 |
| 20260509131532 | 58 | 97 | 0.0 | 1.0 | 0.00 | 0.28 | 0.01 | 97 | 1012.2 |
| 20260509130051 | 57 | 97 | 0.0 | 1.0 | 0.00 | 0.28 | 0.01 | 97 | 1012.0 |
| 20260509124532 | 57 | 97 | 0.0 | 0.0 | 0.00 | 0.28 | 0.01 | 97 | 1011.9 |
| 20260509123034 | 55 | 97 | 0.0 | 0.0 | 0.00 | 0.28 | 0.01 | 97 | 1011.8 |
| 20260509121523 | 54 | 97 | 0.0 | 0.0 | 0.00 | 0.00 | 0.01 | 97 | 1011.6 |
| 20260509120029 | 53 | 97 | 0.0 | 0.0 | 0.00 | 0.28 | 0.01 | 96 | 1011.5 |
| 20260509114522 | 52 | 97 | 0.0 | 0.0 | 0.00 | 0.28 | 0.01 | 96 | 1011.4 |
| 20260509113021 | 53 | 97 | 0.0 | 0.0 | 0.00 | 0.28 | 0.01 | 96 | 1011.1 |
| 20260509111519 | 53 | 97 | 0.0 | 0.0 | 0.00 | 0.28 | 0.01 | 96 | 1011.0 |
| 20260509110021 | 53 | 97 | 0.0 | 0.0 | 0.00 | 0.28 | 0.01 | 96 | 1010.8 |
| 20260509104515 | 54 | 97 | 0.0 | 0.0 | 0.00 | 0.28 | 0.01 | 96 | 1010.9 |
| 20260509103012 | 54 | 97 | 0.0 | 0.0 | 0.00 | 0.28 | 0.01 | 95 | 1010.9 |
| 20260509101513 | 55 | 97 | 0.0 | 0.0 | 0.01 | 0.28 | 0.01 | 96 | 1011.1 |
| 20260509100008 | 55 | 97 | 0.0 | 0.0 | 0.01 | 0.28 | 0.01 | 96 | 1011.4 |
| 20260509094507 | 55 | 97 | 0.0 | 0.0 | 0.01 | 0.28 | 0.01 | 95 | 1011.5 |
| 20260509093006 | 55 | 97 | 0.0 | 0.0 | 0.01 | 0.28 | 0.01 | 95 | 1011.6 |
| 20260509091506 | 56 | 97 | 0.0 | 0.0 | 0.00 | 0.27 | 0.00 | 95 | 1011.4 |
| 20260509090003 | 56 | 97 | 0.0 | 0.0 | 0.00 | 0.27 | 0.00 | 95 | 1011.6 |
| 20260509084502 | 56 | 97 | 0.0 | 0.0 | 0.00 | 0.27 | 0.00 | 95 | 1011.5 |
| 20260509083001 | 56 | 97 | 0.0 | 0.0 | 0.00 | 0.27 | 0.00 | 95 | 1011.3 |
| 20260509081600 | 57 | 97 | 0.0 | 0.0 | 0.00 | 0.27 | 0.00 | 95 | 1011.3 |
| 20260509081501 | 57 | 97 | 0.0 | 0.0 | 0.00 | 0.27 | 0.00 | 95 | 1011.3 |
| 20260509080100 | 57 | 97 | 0.0 | 0.0 | 0.00 | 0.27 | 0.00 | 94 | 1011.5 |
| 20260509074555 | 58 | 97 | 0.0 | 0.0 | 0.00 | 0.27 | 0.00 | 95 | 1011.8 |
| 20260509073052 | 58 | 97 | 0.0 | 0.0 | 0.00 | 0.27 | 0.00 | 94 | 1011.9 |
| 20260509071552 | 58 | 97 | 0.0 | 0.0 | 0.00 | 0.27 | 0.00 | 94 | 1011.9 |
| 20260509070053 | 59 | 97 | 0.0 | 0.0 | 0.00 | 0.27 | 0.00 | 94 | 1011.9 |
| 20260509064557 | 59 | 97 | 0.0 | 1.0 | 0.00 | 0.27 | 0.00 | 94 | 1011.9 |
| 20260509063046 | 59 | 97 | 0.0 | 0.0 | 0.00 | 0.27 | 0.00 | 94 | 1011.7 |
| 20260509061559 | 60 | 97 | 0.0 | 1.0 | 0.00 | 0.27 | 0.00 | 94 | 1012.1 |
| 20260509060045 | 59 | 97 | 0.0 | 1.0 | 0.00 | 0.27 | 0.00 | 94 | 1012.1 |
| 20260509054556 | 59 | 97 | 0.0 | 0.0 | 0.00 | 0.27 | 0.00 | 93 | 1011.9 |
| 20260509053040 | 60 | 97 | 0.0 | 0.0 | 0.00 | 0.27 | 0.00 | 93 | 1011.7 |
| 20260509051537 | 61 | 97 | 0.0 | 0.0 | 0.00 | 0.27 | 0.00 | 93 | 1011.9 |
| 20260509050035 | 62 | 97 | 0.0 | 0.0 | 0.00 | 0.27 | 0.00 | 93 | 1011.8 |
| 20260509044533 | 62 | 89 | 0.0 | 3.0 | 0.00 | 0.27 | 0.27 | 93 | 1012.0 |
| 20260509043033 | 61 | 70 | 0.0 | 3.0 | 0.00 | 0.27 | 0.27 | 93 | 1011.9 |
| 20260509041532 | 62 | 77 | 0.0 | 0.0 | 0.00 | 0.27 | 0.27 | 94 | 1011.8 |
| 20260509040038 | 62 | 77 | 0.0 | 2.0 | 0.00 | 0.27 | 0.27 | 94 | 1011.6 |
| 20260509034533 | 61 | 77 | 0.0 | 1.0 | 0.00 | 0.27 | 0.27 | 94 | 1011.1 |
| 20260509033031 | 61 | 77 | 0.0 | 0.0 | 0.00 | 0.27 | 0.27 | 93 | 1010.7 |
| 20260509031531 | 61 | 77 | 0.0 | 0.0 | 0.00 | 0.27 | 0.27 | 92 | 1010.5 |
| 20260509030030 | 62 | 77 | 0.0 | 0.0 | 0.00 | 0.27 | 0.27 | 92 | 1010.1 |
| 20260509024529 | 63 | 77 | 0.0 | 1.0 | 0.00 | 0.27 | 0.27 | 92 | 1009.8 |
| 20260509023029 | 63 | 77 | 0.0 | 2.0 | 0.00 | 0.27 | 0.27 | 93 | 1009.7 |
| 20260509021528 | 63 | 196 | 0.0 | 0.0 | 0.00 | 0.27 | 0.27 | 92 | 1009.3 |
| 20260509020028 | 63 | 196 | 0.0 | 0.0 | 0.00 | 0.27 | 0.27 | 92 | 1009.1 |
| 20260509014537 | 63 | 196 | 0.0 | 0.0 | 0.00 | 0.27 | 0.27 | 91 | 1008.8 |
| 20260509013026 | 64 | 196 | 0.0 | 0.0 | 0.00 | 0.27 | 0.27 | 89 | 1008.3 |
| 20260509011526 | 66 | 196 | 0.0 | 2.0 | 0.00 | 0.27 | 0.27 | 89 | 1008.3 |
| 20260509010030 | 66 | 208 | 1.0 | 4.0 | 0.00 | 0.27 | 0.27 | 90 | 1008.5 |
| 20260509004524 | 66 | 202 | 1.0 | 6.0 | 0.00 | 0.27 | 0.27 | 91 | 1008.1 |
| 20260509003024 | 68 | 238 | 0.0 | 3.0 | 0.00 | 0.27 | 0.27 | 93 | 1007.6 |
| 20260509001528 | 68 | 186 | 0.0 | 6.0 | 0.00 | 0.27 | 0.27 | 93 | 1007.0 |
| 20260509000022 | 67 | 172 | 1.0 | 8.0 | 0.00 | 0.27 | 0.27 | 94 | 1006.7 |
| 20260508234522 | 67 | 208 | 1.0 | 3.0 | 0.06 | 0.27 | 0.27 | 95 | 1006.8 |
| 20260508233020 | 65 | 226 | 1.0 | 5.0 | 0.27 | 0.27 | 0.27 | 95 | 1006.6 |
| 20260508231519 | 63 | 30 | 0.0 | 0.0 | 0.27 | 0.27 | 0.27 | 94 | 1006.8 |
| 20260508230017 | 63 | 30 | 0.0 | 5.0 | 0.27 | 0.27 | 0.27 | 91 | 1007.1 |
| 20260508224513 | 74 | 30 | 8.0 | 17.0 | 0.14 | 0.14 | 0.14 | 58 | 1007.5 |